Location: Bovenkerk
(52.2915°N, 4.8336°E)
Time: 12:25:14
(UTC+00:00)

Cosmos 1763 Rocket - Pass Details

Date: 09 April 2020
Orbit: 734 x 779 km, 74.0° (Epoch: 23 May)

Event Time Altitude Azimuth Distance (km) Brightness Sun altitude
Rises 19:40:21 0° 336° (NNW) 3,237 7.7 -10.9°
Reaches altitude 10° 19:42:51 10° 343° (NNW) 2,300 6.7 -11.2°
Maximum altitude 19:47:52 46° 57° (ENE) 1,003 3.9 -11.9°
Enters shadow 19:51:30 18° 124° (SE) 1,799 4.8 -12.4°
